Other Public Products
Issued by NWS Charleston, SC

Current Version | Previous Version | Graphics & Text | Print | Product List | Glossary On
Versions: 1 2 3 4 5 6 7 8 9 10 11 12 13 14 15 16 17 18 19 20 21 22 23 24 25 26 27 28 29 30 31 32 33 34 35 36 37 38 39 40 41 42 43 44 45 46 47 48 49 50
576
FPUS82 KCHS 221827
OPUCHS

TEST...KCHS/KSAV Gateway Observations...TEST
National Weather Service Charleston SC
200 PM EDT TUE AUG 22 2017

NOTE: "fair" indicates few or no clouds below 12,000 feet with no
significant weather and/or obstructions to visibility.

SCZ050-WAZ558-NCZ071-TXZ119-213-PAZ071-DCZ001-FLZ074-172-MI076-
NYZ176-178-MAZ016-IL014-TNZ027-NJZ106-GAZ044-MD014-221900-

...Gateway Observations for Charleston International...

CITY           SKY/WX    TMP DP  RH WIND       PRES   REMARKS
Chas Airport   PTSUNNY   89  75  63 S9        30.08F HX  99
6HR MIN TEMP:  79; 6HR MAX TEMP:  89;

Seattle        SUNNY     74  56  53 VRB5      30.03S
6HR MIN TEMP:  60; 6HR MAX TEMP:  74;

Charlotte      PTSUNNY   91  73  55 W7        30.08F HX  99
6HR MIN TEMP:  75; 6HR MAX TEMP:  91;

Dallas DFW     MOSUNNY   94  70  45 S7        30.04F HX 100
6HR MIN TEMP:  79; 6HR MAX TEMP:  95;

Dallas Love    MOSUNNY   94  69  44 VRB5      30.05F HX  99
6HR MIN TEMP:  80; 6HR MAX TEMP:  95;

Philladelphia  MOSUNNY   89  74  60 SW14      29.94F HX  98
6HR MIN TEMP:  77; 6HR MAX TEMP:  90;

Wash National  MOSUNNY   90  76  63 S14       29.96F HX 101
6HR MIN TEMP:  77; 6HR MAX TEMP:  91;

Baltimore      MOSUNNY   91  72  53 S10       29.94F HX  98
6HR MIN TEMP:  74; 6HR MAX TEMP:  91;

Miami          PTSUNNY   91  76  61 E10       30.01F HX 103
6HR MIN TEMP:  85; 6HR MAX TEMP:  93; 6HR PCP: TRACE;

Detroit        CLOUDY    77  66  68 SW17      29.79F
6HR MIN TEMP:  73; 6HR MAX TEMP:  78; 6HR PCP: TRACE;

Newark         PTSUNNY   87  73  62 S14G22    29.91F HX  94
6HR MIN TEMP:  75; 6HR MAX TEMP:  88;

Laguardia      PTSUNNY   88  75  65 S14       29.91F HX  97
6HR MIN TEMP:  77; 6HR MAX TEMP:  89;

J F K          MOSUNNY   85  78  80 S17       29.95F HX  96
6HR MIN TEMP:  75; 6HR MAX TEMP:  85;

Boston Logan   MOSUNNY   89  70  53 S16       29.88F HX  94
6HR MIN TEMP:  72; 6HR MAX TEMP:  90;

Ft. Lauderdale PTSUNNY   89  77  67 E13       30.01S HX 101
6HR MIN TEMP:  83; 6HR MAX TEMP:  90; 6HR PCP: TRACE;

Chicago O`Hare PTSUNNY   78  60  53 NW17      29.89S
6HR MIN TEMP:  71; 6HR MAX TEMP:  79;

Chicago Midway PTSUNNY   76  61  59 NW16G29   29.90R
6HR MIN TEMP:  71; 6HR MAX TEMP:  76;

Houston Bush   MOSUNNY   90  72  55 CALM      30.06F HX  97
6HR MIN TEMP:  75; 6HR MAX TEMP:  93;

Houston Hobby  MOSUNNY   96  69  41 VRB5      30.05F HX 102
6HR MIN TEMP:  78; 6HR MAX TEMP:  96;

Nashville      LGT RAIN  79  70  74 W6G16     30.04F
6HR MIN TEMP:  75; 6HR MAX TEMP:  92; 6HR PCP:  0.20;

Atlanta        MOSUNNY   91  68  46 W7        30.11F HX  95
6HR MIN TEMP:  75; 6HR MAX TEMP:  91;


$$

GAZ044-118-TXZ119-213-NCZ071-DCZ001-MDZ014-506-PAZ021-071-NJZ106-
NYZ176-178-MAZ106-OHZ011-021-055-MIZ076-KYZ091-ILZ014-INZ047-
MNZ060-ONZ431-221900-

...Gateway Observations for Savannah International...

CITY           SKY/WX    TMP DP  RH WIND       PRES   REMARKS
Savannah Arpt  PTSUNNY   87  75  67 N8        30.09F HX  96
6HR MIN TEMP:  77; 6HR MAX TEMP:  90;

Atlanta        MOSUNNY   91  68  46 W7        30.11F HX  95
6HR MIN TEMP:  75; 6HR MAX TEMP:  91;

Charlotte      PTSUNNY   91  73  55 W7        30.08F HX  99
6HR MIN TEMP:  75; 6HR MAX TEMP:  91;

Dallas DFW     MOSUNNY   94  70  45 S7        30.04F HX 100
6HR MIN TEMP:  79; 6HR MAX TEMP:  95;

Houston Bush   MOSUNNY   90  72  55 CALM      30.06F HX  97
6HR MIN TEMP:  75; 6HR MAX TEMP:  93;

Wash National  MOSUNNY   90  76  63 S14       29.96F HX 101
6HR MIN TEMP:  77; 6HR MAX TEMP:  91;

Wash Dulles    MOSUNNY   91  74  57 SW9       29.95F HX 100
6HR MIN TEMP:  73; 6HR MAX TEMP:  91;

Baltimore      MOSUNNY   91  72  53 S10       29.94F HX  98
6HR MIN TEMP:  74; 6HR MAX TEMP:  91;

Philadelphia   MOSUNNY   89  74  60 SW14      29.94F HX  98
6HR MIN TEMP:  77; 6HR MAX TEMP:  90;

Newark         PTSUNNY   87  73  62 S14G22    29.91F HX  94
6HR MIN TEMP:  75; 6HR MAX TEMP:  88;

Laguardia      PTSUNNY   88  75  65 S14       29.91F HX  97
6HR MIN TEMP:  77; 6HR MAX TEMP:  89;

J F K          MOSUNNY   85  78  80 S17       29.95F HX  96
6HR MIN TEMP:  75; 6HR MAX TEMP:  85;

Boston         MOSUNNY   89  70  53 S16       29.88F HX  94
6HR MIN TEMP:  72; 6HR MAX TEMP:  90;

Pittsburg      TSTM      78  72  81 SW16      29.90S
6HR MIN TEMP:  73; 6HR MAX TEMP:  85; 6HR PCP: TRACE;

Akron          CLOUDY    84  68  58 W21G32    29.86F
6HR MIN TEMP:  77; 6HR MAX TEMP:  87;

Cleveland      LGT RAIN  74  69  85 SW14      29.85R
6HR MIN TEMP:  73; 6HR MAX TEMP:  86; 6HR PCP:  0.18;

Cincinnati     CLOUDY    78  76  93 NW9       29.94F
6HR MIN TEMP:  73; 6HR MAX TEMP:  85; 6HR PCP:  0.49;

Columbus       CLOUDY    73  71  94 W12       29.91R THUNDER
Detroit        CLOUDY    77  66  68 SW17      29.79F
6HR MIN TEMP:  73; 6HR MAX TEMP:  78; 6HR PCP: TRACE;

Chicago O`Hare PTSUNNY   78  60  53 NW17      29.89S
6HR MIN TEMP:  71; 6HR MAX TEMP:  79;

Minneapolis    MOSUNNY   74  49  41 NW14G24   30.03F
6HR MIN TEMP:  60; 6HR MAX TEMP:  74;

Indianapolis   CLOUDY    76  68  76 W16       29.94S
6HR MIN TEMP:  70; 6HR MAX TEMP:  76; 6HR PCP:  0.30;

Toronto Canada LGT RAIN  70  68  94 W15G24    29.66S

$$




USA.gov is the U.S. government's official web portal to all federal, state and local government web resources and services.